{"data":{"norad_id":60285,"intl_designator":"2024-132H","name":"STARLINK-32122","alt_names":[],"object_type":"PAYLOAD","status":"ACTIVE","operator":null,"country":"US","launch_date":"2024-07-28","launch_site_code":"AFETR","launch_vehicle":null,"mission":null,"orbit_class":"UNKNOWN","rcs_meters":null,"size_class":null,"mass_kg":null,"dimensions":null,"purposes":["comms"],"wikipedia_slug":null,"has_3d_model":false,"image_url":null,"decayed_at":null,"tle_current":{"epoch":"2026-09-21T07:31:05.301984Z","epoch_age_seconds":111286,"freshness":"FRESH","line1":"1 60285U 24132H   26264.31325581 -.00000078  00000+0  92397-5 0  9991","line2":"2 60285  53.1606 222.9009 0001398  83.4024 276.7136 15.31706765121524","mean_motion":15.31706765,"eccentricity":0.0001398,"inclination_deg":53.1606,"raan_deg":222.9009,"arg_perigee_deg":83.4024,"mean_anomaly_deg":276.7136,"bstar":9.2397e-6,"rev_number":12152,"period_min":94.012772738521,"perigee_km":469.76235900217,"apogee_km":471.67729937161,"semimajor_km":6848.8568291869,"source":"CELESTRAK","updated_at":"2026-09-22T09:00:49.192669Z"}}}